FW1786 Weather Reports


Display with metric or nautical units.
time (UTC)temp
F
wind
direction
speed
MPH
gust
MPH
rain 1hr
in
rain 24hr
in
rain mn
in
humidity
%
barometer
mb
20210614144015 88 20 2.0 4.0 0.00 0.00 0.00 76 1015.4
20210614143516 87 20 1.0 4.0 0.00 0.00 0.00 77 1015.4
20210614143032 87 357 0.0 3.0 0.00 0.00 0.00 77 1015.3
20210614142528 87 357 1.0 3.0 0.00 0.00 0.00 77 1015.4
20210614142024 86 357 1.0 8.0 0.00 0.00 0.00 77 1015.3
20210614141520 86 340 3.0 8.0 0.00 0.00 0.00 79 1015.3
20210614141015 86 304 3.0 6.0 0.00 0.00 0.00 79 1015.3
20210614140531 86 350 3.0 8.0 0.00 0.00 0.00 79 1015.3
20210614140027 86 335 5.0 8.0 0.00 0.00 0.00 80 1015.3
20210614135528 85 345 3.0 9.0 0.00 0.00 0.00 80 1015.2
20210614135024 85 350 5.0 8.0 0.00 0.00 0.00 80 1015.2
20210614134521 84 32 4.0 9.0 0.00 0.00 0.00 80 1015.2
20210614134017 84 25 5.0 11.0 0.00 0.00 0.00 81 1015.2
20210614133514 83 32 8.0 11.0 0.00 0.00 0.00 81 1015.1
20210614133030 83 3 5.0 9.0 0.00 0.00 0.00 81 1015.1
20210614132527 83 47 5.0 8.0 0.00 0.00 0.00 82 1015.1
20210614132027 83 23 3.0 6.0 0.00 0.00 0.00 82 1015.1
20210614131524 82 22 4.0 6.0 0.00 0.00 0.00 83 1015.1
20210614131020 82 43 4.0 8.0 0.00 0.00 0.00 84 1015.2
20210614130516 81 335 4.0 8.0 0.00 0.00 0.00 86 1015.2
20210614130033 81 323 5.0 9.0 0.00 0.00 0.00 86 1015.1
20210614125530 80 319 6.0 9.0 0.00 0.00 0.00 87 1015.2
20210614125026 80 327 5.0 8.0 0.00 0.00 0.00 88 1015.1
20210614124527 79 300 4.0 8.0 0.00 0.00 0.00 88 1015.0
20210614124022 79 318 4.0 6.0 0.00 0.00 0.00 88 1015.0
20210614123518 79 309 3.0 5.0 0.00 0.00 0.00 88 1015.0
20210614123014 79 309 3.0 6.0 0.00 0.00 0.00 88 1015.0
20210614122529 79 309 4.0 6.0 0.00 0.00 0.00 88 1014.9
20210614122026 79 309 4.0 5.0 0.00 0.00 0.00 87 1014.9
20210614121522 79 309 4.0 5.0 0.00 0.00 0.00 87 1014.9
20210614121022 79 306 4.0 5.0 0.00 0.00 0.00 87 1014.8
20210614120518 79 314 4.0 6.0 0.00 0.00 0.00 87 1014.8
20210614120016 79 315 4.0 6.0 0.00 0.00 0.00 87 1014.7
20210614115530 79 320 3.0 5.0 0.00 0.00 0.00 87 1014.6
20210614115025 79 320 3.0 4.0 0.00 0.00 0.00 87 1014.7
20210614114519 79 320 3.0 4.0 0.00 0.00 0.00 87 1014.6
20210614114016 79 320 3.0 4.0 0.00 0.00 0.00 87 1014.5
20210614113516 79 320 0.0 4.0 0.00 0.00 0.00 87 1014.4
20210614113032 79 320 2.0 5.0 0.00 0.00 0.00 87 1014.3
20210614112528 79 320 3.0 5.0 0.00 0.00 0.00 87 1014.2
20210614112024 79 321 4.0 5.0 0.00 0.00 0.00 87 1014.1
20210614111522 79 320 4.0 6.0 0.00 0.00 0.00 87 1014.1
20210614111018 79 313 4.0 6.0 0.00 0.00 0.00 87 1014.1
20210614110514 79 284 3.0 7.0 0.00 0.00 0.00 87 1014.0
20210614110013 79 265 2.0 4.0 0.00 0.00 0.00 87 1014.0
20210614105531 79 285 1.0 5.0 0.00 0.00 0.00 86 1013.9
20210614105027 79 285 3.0 5.0 0.00 0.00 0.00 86 1013.7
20210614104524 79 304 3.0 5.0 0.00 0.00 0.00 86 1013.5
20210614104020 79 302 4.0 6.0 0.00 0.00 0.00 86 1013.3
20210614103514 79 311 4.0 6.0 0.00 0.00 0.00 86 1013.3
20210614103031 79 304 4.0 6.0 0.00 0.00 0.00 86 1013.3
20210614102532 79 304 5.0 6.0 0.00 0.00 0.00 86 1013.4
20210614102028 80 305 5.0 6.0 0.00 0.00 0.00 86 1013.5
20210614101524 80 311 4.0 5.0 0.00 0.00 0.00 86 1013.6
20210614101021 80 310 3.0 6.0 0.00 0.00 0.00 86 1013.6
20210614100516 80 310 4.0 9.0 0.00 0.00 0.00 86 1013.5
20210614100013 80 296 4.0 9.0 0.00 0.00 0.00 86 1013.4
20210614095530 80 302 4.0 6.0 0.00 0.00 0.00 85 1013.5
20210614095031 80 330 3.0 4.0 0.00 0.00 0.00 85 1013.5
20210614094527 80 330 3.0 4.0 0.00 0.00 0.00 85 1013.5
20210614094024 80 306 2.0 4.0 0.00 0.00 0.00 85 1013.4
20210614093521 80 306 3.0 4.0 0.00 0.00 0.00 85 1013.5
20210614093018 80 306 2.0 4.0 0.00 0.00 0.00 84 1013.5
20210614092514 80 306 2.0 5.0 0.00 0.00 0.00 84 1013.5
20210614092032 80 306 3.0 5.0 0.00 0.00 0.00 84 1013.4
20210614091531 80 306 4.0 5.0 0.00 0.00 0.00 84 1013.4
20210614091027 80 306 4.0 6.0 0.00 0.00 0.00 84 1013.4
20210614090027 80 275 3.0 8.0 0.00 0.00 0.00 84 1013.5
20210614085522 80 303 5.0 8.0 0.00 0.00 0.00 84 1013.3
20210614085019 81 308 6.0 9.0 0.00 0.00 0.00 83 1013.4
20210614084515 81 304 5.0 9.0 0.00 0.00 0.00 83 1013.4
20210614084031 81 333 4.0 9.0 0.00 0.00 0.00 83 1013.4
20210614083528 81 334 5.0 8.0 0.00 0.00 0.00 82 1013.5
20210614083028 81 323 4.0 5.0 0.00 0.00 0.00 82 1013.6
20210614082525 81 314 4.0 6.0 0.00 0.00 0.00 81 1013.6
20210614082022 81 309 4.0 6.0 0.00 0.00 0.00 81 1013.7
20210614081517 81 306 4.0 6.0 0.00 0.00 0.00 81 1013.6
20210614081015 81 286 2.0 7.0 0.00 0.00 0.00 81 1013.5
20210614080531 82 303 4.0 5.0 0.00 0.00 0.00 80 1013.4
20210614080028 82 308 4.0 5.0 0.00 0.00 0.00 80 1013.4
20210614075528 82 246 2.0 5.0 0.00 0.00 0.00 80 1013.6
20210614075023 82 225 2.0 4.0 0.00 0.00 0.00 79 1013.7
20210614074519 82 308 1.0 3.0 0.00 0.00 0.00 79 1013.5
20210614074015 82 308 0.0 4.0 0.00 0.00 0.00 79 1013.6
20210614073532 82 308 3.0 6.0 0.00 0.00 0.00 79 1013.8
20210614073028 82 308 3.0 6.0 0.00 0.00 0.00 79 1013.9
20210614072524 82 298 2.0 3.0 0.00 0.00 0.00 78 1014.0
20210614072025 82 298 0.0 3.0 0.00 0.00 0.00 78 1014.3
20210614071522 83 298 1.0 5.0 0.00 0.00 0.00 78 1014.3
20210614071018 83 298 4.0 6.0 0.00 0.00 0.00 78 1014.1
20210614070515 83 320 4.0 8.0 0.00 0.00 0.00 78 1014.1
20210614070031 83 314 4.0 8.0 0.00 0.00 0.00 78 1014.3
20210614065526 83 306 5.0 6.0 0.00 0.00 0.00 77 1014.3
20210614065023 83 324 4.0 8.0 0.00 0.00 0.00 77 1014.4
20210614064524 83 316 6.0 8.0 0.00 0.00 0.00 77 1014.3
20210614064021 83 312 4.0 6.0 0.00 0.00 0.00 76 1014.4
20210614063517 83 308 4.0 5.0 0.00 0.00 0.00 76 1014.5
20210614063014 84 326 2.0 4.0 0.00 0.00 0.00 76 1014.4
20210614062530 84 321 2.0 4.0 0.00 0.00 0.00 76 1014.6
20210614062027 84 298 2.0 4.0 0.00 0.00 0.00 76 1014.6
20210614061522 84 298 3.0 6.0 0.00 0.00 0.00 75 1014.5
20210614061023 84 310 3.0 10.0 0.00 0.00 0.00 75 1014.5
20210614060518 84 287 5.0 10.0 0.00 0.00 0.00 75 1014.5
20210614060015 85 289 5.0 9.0 0.00 0.00 0.00 75 1014.5
20210614055531 85 314 5.0 9.0 0.00 0.00 0.00 75 1014.4
20210614055027 85 289 4.0 9.0 0.00 0.00 0.00 75 1014.4
20210614054523 86 296 5.0 9.0 0.00 0.00 0.00 75 1014.4
20210614054021 86 295 4.0 9.0 0.00 0.00 0.00 74 1014.5
20210614053520 86 285 2.0 3.0 0.00 0.00 0.00 74 1014.5
20210614053017 86 287 2.0 3.0 0.00 0.00 0.00 74 1014.4
20210614052514 86 287 1.0 3.0 0.00 0.00 0.00 73 1014.3
20210614052029 86 287 1.0 3.0 0.00 0.00 0.00 72 1014.2
20210614051525 86 287 1.0 3.0 0.00 0.00 0.00 72 1014.1
20210614051022 86 287 0.0 0.0 0.00 0.00 0.00 71 1014.2
20210614050518 87 287 0.0 0.0 0.00 0.00 0.00 71 1014.2
20210614050018 87 287 0.0 2.0 0.00 0.00 0.00 71 1014.2
20210614045515 87 287 0.0 3.0 0.00 0.00 0.00 71 1014.1
20210614045030 87 287 2.0 3.0 0.00 0.00 0.00 71 1013.8
20210614044525 87 287 1.0 3.0 0.00 0.00 0.00 70 1013.7
20210614044020 87 287 1.0 4.0 0.00 0.00 0.00 70 1013.9
20210614043514 87 287 2.0 4.0 0.00 0.00 0.00 70 1013.9
20210614043029 87 287 3.0 4.0 0.00 0.00 0.00 70 1013.9
20210614042527 87 288 1.0 3.0 0.00 0.00 0.00 70 1013.9
20210614042022 87 288 1.0 3.0 0.00 0.00 0.00 69 1014.0
20210614041518 88 288 1.0 3.0 0.00 0.00 0.00 69 1014.0
20210614041013 88 288 2.0 4.0 0.00 0.00 0.00 68 1013.9
20210614040528 88 288 3.0 4.0 0.00 0.00 0.00 68 1013.9
20210614040024 88 288 0.0 3.0 0.00 0.00 0.00 68 1013.8
20210614035518 88 288 1.0 3.0 0.00 0.00 0.00 67 1013.9
20210614035018 88 288 2.0 3.0 0.00 0.00 0.00 67 1013.7
20210614034532 88 288 0.0 3.0 0.00 0.00 0.00 67 1013.6
20210614034028 88 288 2.0 3.0 0.00 0.00 0.00 67 1013.7
20210614033524 89 288 2.0 4.0 0.00 0.00 0.00 67 1013.4
20210614033019 89 288 2.0 5.0 0.00 0.00 0.00 66 1013.3
20210614032516 89 284 3.0 5.0 0.00 0.00 0.00 66 1013.5
20210614032032 89 262 2.0 3.0 0.00 0.00 0.00 66 1013.5
20210614031526 89 261 2.0 3.0 0.00 0.00 0.00 66 1013.5
20210614031025 89 261 3.0 3.0 0.00 0.00 0.00 66 1013.4
20210614030521 90 260 3.0 3.0 0.00 0.00 0.00 66 1013.4
20210614030018 90 260 2.0 3.0 0.00 0.00 0.00 65 1013.3
20210614025513 90 260 2.0 3.0 0.00 0.00 0.00 65 1013.3
20210614025028 90 257 1.0 3.0 0.00 0.00 0.00 64 1013.1
20210614024523 90 257 2.0 4.0 0.00 0.00 0.00 64 1013.1
20210614024017 90 256 1.0 4.0 0.00 0.00 0.00 63 1013.0
20210614023517 91 256 1.0 3.0 0.00 0.00 0.00 63 1013.1
20210614023032 91 256 0.0 4.0 0.00 0.00 0.00 63 1013.0
20210614022528 91 256 2.0 5.0 0.00 0.00 0.00 63 1012.9
20210614022022 91 280 1.0 5.0 0.00 0.00 0.00 63 1012.8
20210614021518 91 285 2.0 4.0 0.00 0.00 0.00 62 1012.8
20210614021033 91 252 1.0 4.0 0.00 0.00 0.00 62 1012.8
20210614020528 91 252 2.0 4.0 0.00 0.00 0.00 62 1012.7
20210614020027 92 249 1.0 6.0 0.00 0.00 0.00 61 1012.7
20210614015523 92 248 2.0 6.0 0.00 0.00 0.00 61 1012.7
20210614015018 92 244 2.0 5.0 0.00 0.00 0.00 60 1012.7
20210614014514 92 254 3.0 7.0 0.00 0.00 0.00 60 1012.8
20210614014030 92 285 3.0 7.0 0.00 0.00 0.00 60 1012.7
20210614013526 92 284 3.0 6.0 0.00 0.00 0.00 59 1012.7
20210614013020 92 302 5.0 6.0 0.00 0.00 0.00 59 1012.8
20210614012520 92 135 2.0 6.0 0.00 0.00 0.00 59 1012.6
20210614012016 93 198 3.0 6.0 0.00 0.00 0.00 59 1012.6
20210614011531 93 311 4.0 6.0 0.00 0.00 0.00 59 1012.6
20210614011026 93 307 5.0 8.0 0.00 0.00 0.00 59 1012.6
20210614010521 93 324 4.0 8.0 0.00 0.00 0.00 59 1012.6
20210614010017 93 335 4.0 6.0 0.00 0.00 0.00 59 1012.6
20210614005514 93 350 2.0 5.0 0.00 0.00 0.00 58 1012.6
20210614005029 93 298 4.0 5.0 0.00 0.00 0.00 57 1012.5
20210614004527 93 194 1.0 3.0 0.00 0.00 0.00 56 1012.4
20210614004024 94 194 1.0 5.0 0.00 0.00 0.00 55 1012.3
20210614003518 94 194 1.0 5.0 0.00 0.00 0.00 55 1012.2
20210614003015 93 192 3.0 4.0 0.00 0.00 0.00 57 1012.2
20210614002529 93 156 0.0 2.0 0.00 0.00 0.00 58 1012.0
20210614002024 93 156 1.0 5.0 0.00 0.00 0.00 57 1012.0
20210614001520 93 156 3.0 5.0 0.00 0.00 0.00 55 1011.9
20210614001019 93 175 0.0 4.0 0.00 0.00 0.00 59 1011.9
20210614000514 94 175 1.0 7.0 0.00 0.00 0.00 55 1011.9
20210614000029 94 165 2.0 7.0 0.00 0.00 0.00 55 1011.9
20210613235526 94 158 0.0 5.0 0.00 0.00 0.00 57 1012.0
20210613235021 94 158 2.0 5.0 0.00 0.00 0.00 54 1012.0
20210613234518 94 157 2.0 6.0 0.00 0.00 0.00 55 1012.0
20210613234013 94 196 2.0 5.0 0.00 0.00 0.00 54 1012.0
20210613233513 94 177 1.0 3.0 0.00 0.00 0.00 56 1012.1
20210613233028 94 177 1.0 6.0 0.00 0.00 0.00 55 1012.1
20210613232523 94 169 2.0 6.0 0.00 0.00 0.00 55 1012.1
20210613232019 94 115 3.0 7.0 0.00 0.00 0.00 55 1012.1
20210613231514 94 110 3.0 6.0 0.00 0.00 0.00 57 1012.2
20210613231029 94 50 3.0 8.0 0.00 0.00 0.00 57 1012.2
20210613230525 94 332 4.0 8.0 0.00 0.00 0.00 57 1012.2
20210613230024 94 65 3.0 8.0 0.00 0.00 0.00 56 1012.3
20210613225519 94 16 3.0 9.0 0.00 0.00 0.00 58 1012.3
20210613225015 94 66 5.0 9.0 0.00 0.00 0.00 57 1012.4
20210613224512 94 48 3.0 9.0 0.00 0.00 0.00 56 1012.5
20210613224028 95 58 6.0 9.0 0.00 0.00 0.00 56 1012.6
20210613223524 95 16 3.0 9.0 0.00 0.00 0.00 55 1012.6
20210613223019 94 12 6.0 9.0 0.00 0.00 0.00 57 1012.6
20210613222520 94 58 1.0 6.0 0.00 0.00 0.00 58 1012.5
20210613222015 94 57 3.0 9.0 0.00 0.00 0.00 56 1012.6
20210613221530 94 302 3.0 11.0 0.00 0.00 0.00 58 1012.6
20210613221028 94 354 4.0 9.0 0.00 0.00 0.00 56 1012.6
20210613220523 94 39 1.0 10.0 0.00 0.00 0.00 54 1012.8
20210613220019 95 39 3.0 12.0 0.00 0.00 0.00 56 1012.9
20210613215513 94 61 7.0 12.0 0.00 0.00 0.00 56 1012.9
20210613215014 94 329 8.0 11.0 0.00 0.00 0.00 59 1012.9
20210613214528 95 13 5.0 8.0 0.00 0.00 0.00 56 1013.0
20210613214023 95 93 2.0 6.0 0.00 0.00 0.00 54 1013.1
20210613213517 94 34 2.0 9.0 0.00 0.00 0.00 55 1013.1
20210613213013 95 20 5.0 8.0 0.00 0.00 0.00 53 1013.1
20210613212530 95 56 3.0 10.0 0.00 0.00 0.00 54 1013.0
20210613212026 95 304 3.0 10.0 0.00 0.00 0.00 55 1013.0
20210613211522 95 317 6.0 9.0 0.00 0.00 0.00 53 1013.1
20210613211021 94 358 4.0 9.0 0.00 0.00 0.00 55 1013.2
20210613210517 94 345 5.0 10.0 0.00 0.00 0.00 54 1013.3
20210613210013 95 332 7.0 10.0 0.00 0.00 0.00 55 1013.3
20210613205529 95 23 3.0 6.0 0.00 0.00 0.00 55 1013.3
20210613205024 94 221 1.0 5.0 0.00 0.00 0.00 54 1013.4
20210613204520 94 206 3.0 5.0 0.00 0.00 0.00 58 1013.4
20210613204016 94 330 2.0 9.0 0.00 0.00 0.00 58 1013.4
20210613203514 94 323 3.0 9.0 0.00 0.00 0.00 58 1013.6
20210613203031 93 329 5.0 9.0 0.00 0.00 0.00 60 1013.6
20210613202527 92 23 4.0 5.0 0.00 0.00 0.00 59 1013.7
20210613202023 92 33 2.0 4.0 0.00 0.00 0.00 61 1013.8
20210613201518 93 319 2.0 4.0 0.00 0.00 0.00 61 1013.7
20210613201014 94 310 2.0 8.0 0.00 0.00 0.00 59 1013.9
20210613200511 95 310 4.0 8.0 0.00 0.00 0.00 58 1013.9
20210613200030 95 314 3.0 6.0 0.00 0.00 0.00 63 1014.0
20210613195526 94 195 2.0 4.0 0.00 0.00 0.00 62 1014.1
20210613195021 95 204 1.0 4.0 0.00 0.00 0.00 58 1014.2
20210613194518 95 198 1.0 7.0 0.00 0.00 0.00 60 1014.3
20210613194013 93 239 2.0 7.0 0.00 0.00 0.00 63 1014.4
20210613193528 94 179 2.0 6.0 0.00 0.00 0.00 60 1014.5
20210613192527 92 308 4.0 6.0 0.00 0.00 0.00 61 1014.5
20210613192022 92 298 3.0 6.0 0.00 0.00 0.00 60 1014.6
20210613191521 92 315 4.0 6.0 0.00 0.00 0.00 60 1014.6
20210613191016 92 310 5.0 6.0 0.00 0.00 0.00 59 1014.6
20210613190532 93 309 4.0 10.0 0.00 0.00 0.00 59 1014.6
20210613190025 94 321 4.0 10.0 0.00 0.00 0.00 57 1014.6
20210613185520 94 312 7.0 10.0 0.00 0.00 0.00 58 1014.6
20210613185015 93 229 2.0 3.0 0.00 0.00 0.00 61 1014.7
20210613184531 93 159 1.0 7.0 0.00 0.00 0.00 57 1014.8
20210613184030 93 202 2.0 7.0 0.00 0.00 0.00 57 1014.8
20210613183525 94 165 2.0 5.0 0.00 0.00 0.00 57 1014.8
20210613183021 94 303 2.0 5.0 0.00 0.00 0.00 58 1014.8
20210613182517 93 150 2.0 9.0 0.00 0.00 0.00 58 1014.9
20210613182032 93 79 3.0 9.0 0.00 0.00 0.00 59 1014.8
20210613181529 94 158 4.0 7.0 0.00 0.00 0.00 59 1014.8
20210613181024 94 28 2.0 7.0 0.00 0.00 0.00 59 1014.8
20210613180522 93 27 4.0 7.0 0.00 0.00 0.00 60 1014.7
20210613180017 93 229 3.0 9.0 0.00 0.00 0.00 61 1014.6
20210613175532 93 143 4.0 9.0 0.00 0.00 0.00 60 1014.8
20210613175028 93 11 4.0 8.0 0.00 0.00 0.00 60 1014.9
20210613174524 92 96 2.0 8.0 0.00 0.00 0.00 59 1014.9
20210613174019 92 143 4.0 11.0 0.00 0.00 0.00 62 1015.0
20210613173516 92 150 5.0 11.0 0.00 0.00 0.00 60 1015.1
20210613173014 92 201 2.0 8.0 0.00 0.00 0.00 64 1015.1
20210613172530 92 15 2.0 11.0 0.00 0.00 0.00 62 1015.1
20210613172027 92 59 6.0 11.0 0.00 0.00 0.00 62 1015.0
20210613171521 92 89 3.0 11.0 0.00 0.00 0.00 62 1014.8
20210613171017 92 101 8.0 11.0 0.00 0.00 0.00 61 1014.7
20210613170532 92 70 1.0 11.0 0.00 0.00 0.00 64 1014.7
20210613170028 91 72 3.0 11.0 0.00 0.00 0.00 66 1014.6
20210613165524 91 101 4.0 9.0 0.00 0.00 0.00 65 1014.7
20210613165023 91 153 5.0 9.0 0.00 0.00 0.00 63 1014.7
20210613164518 91 68 3.0 10.0 0.00 0.00 0.00 65 1014.7
20210613164014 91 89 6.0 10.0 0.00 0.00 0.00 65 1014.7
20210613163529 90 56 3.0 8.0 0.00 0.00 0.00 66 1014.8
20210613163025 90 63 2.0 13.0 0.00 0.00 0.00 67 1014.9
20210613162522 90 50 6.0 13.0 0.00 0.00 0.00 67 1014.9
20210613162017 90 61 4.0 8.0 0.00 0.00 0.00 66 1015.0
20210613161516 90 67 5.0 8.0 0.00 0.00 0.00 67 1015.0
20210613161033 90 22 5.0 9.0 0.00 0.00 0.00 69 1014.8
20210613160528 89 44 3.0 9.0 0.00 0.00 0.00 68 1014.9
20210613160024 89 73 4.0 9.0 0.00 0.00 0.00 69 1014.9
20210613155519 89 60 3.0 8.0 0.00 0.00 0.00 68 1014.9
20210613155015 88 31 2.0 9.0 0.00 0.00 0.00 70 1014.9
20210613154531 88 46 3.0 8.0 0.00 0.00 0.00 71 1014.8
20210613154031 88 9 6.0 8.0 0.00 0.00 0.00 71 1015.0
20210613153527 87 52 4.0 6.0 0.00 0.00 0.00 71 1015.1
20210613153023 87 350 3.0 9.0 0.00 0.00 0.00 74 1015.1
20210613152518 86 44 5.0 9.0 0.00 0.00 0.00 74 1015.1
20210613152033 86 6 2.0 6.0 0.00 0.00 0.00 75 1015.2
20210613151033 85 300 4.0 8.0 0.00 0.00 0.00 76 1015.4
20210613150530 86 291 3.0 8.0 0.00 0.00 0.00 77 1015.5
20210613150024 85 314 3.0 6.0 0.00 0.00 0.00 77 1015.5
20210613145524 85 316 2.0 6.0 0.00 0.00 0.00 78 1015.5
20210613145019 84 327 3.0 9.0 0.00 0.00 0.00 77 1015.5
20210613144515 84 308 6.0 10.0 0.00 0.00 0.00 77 1015.6